398  
ASUS43 KMPX 172310  
RWRMN  
WEATHER ROUNDUP FOR MINNESOTA  
NATIONAL WEATHER SERVICE TWIN CITIES/CHANHASSEN MN  
500 PM CST THU JAN 17 2019  
 
NOTE: "FAIR" INDICATES FEW OR NO CLOUDS BELOW 12,000 FEET WITH NO  
SIGNIFICANT WEATHER AND/OR S TO VISIBILITY
. N/A MEANS  
CURRENT SKY AND/OR WEATHER CONDITIONS ARE NOT AVAILABLE.  
 
MNZ060>063-068>070-180000-  
TWIN CITIES METRO  
 
CITY SKY/WX TMP DP RH WIND PRES REMARKS
 
TWIN CITIES FAIR 20 7 57 NW14 30.11R WCI 7  
ST PAUL FAIR 20 5 52 NW10 30.12R WCI 9  
CRYSTAL CLOUDY 19 5 54 NW12 30.10R WCI 7  
BLAINE MOCLDY 21 7 53 NW9 30.09R WCI 11  
LAKEVILLE FAIR 21 10 63 NW8 30.10R WCI 12  
EDEN PRAIRIE MOCLDY 19 4 51 NW12 30.10R WCI 7  
SOUTH ST PAUL FAIR 22 8 55 NW8 30.10R WCI 12  
LAKE ELMO N/A 21 9 58 NW9 30.11R WCI 11  

 
MNZ001>005-007-008-013>017-022>024-027-028-180000-  
NORTHWEST MINNESOTA  
 
CITY SKY/WX TMP DP RH WIND PRES REMARKS
 
BEMIDJI FAIR 6 -5 60 W8 30.11R WCI -7  
HALLOCK N/A 1 -4 78 NW7 30.22R WCI -11  
ROSEAU FAIR 3 -4 72 W10 30.16R WCI -12  
WARROAD FAIR 3 -4 72 W6 30.14R WCI -8  
THIEF RVR FALL CLEAR 1 -5 75 W9 30.18R WCI -14  
CROOKSTON PTCLDY 0 -4 85 N8 30.22R WCI -15  
FOSSTON PTCLDY 0 -6 78 W3 30.16R  
DETROIT LAKES FAIR 10 5 79 NW8 30.13F WCI -1  
MOORHEAD CLOUDY 9 1 72 NW8 30.20S WCI -4  
PARK RAPIDS CLOUDY 11 -1 58 NW9 30.09R WCI -2  
MAHNOMEN CLOUDY 6 0 76 NW6 30.15S WCI -5  

 
MNZ006-009>011-018-025>026-180000-  
NORTH CENTRAL MINNESOTA  
 
CITY SKY/WX TMP DP RH WIND PRES REMARKS
 
BAUDETTE FAIR 3 -6 66 W8 30.10R WCI -10  
FLAG ISLAND FAIR 3 -6 66 NW10 30.12R WCI -12  
INTL FALLS FAIR 4 -5 66 W6 30.09R WCI -7  
WASKISH FAIR 5 -4 66 W7 30.11R WCI -7  
BIG FORK FAIR 9 -6 52 NW3 30.07R  
LONGVILLE FAIR 9 -2 61 W5 30.10R WCI 0  
GRAND RAPIDS FAIR 7 -4 60 W7 30.09R WCI -5  
CRANE LAKE FAIR 1 -6 71 CALM 30.08R  
ORR FAIR 7 -6 56 NW3 30.03R  
COOK FAIR 9 -6 52 CALM 30.05R  
WALKER FAIR 7 -6 54 W5 30.10R WCI -1  

 
MNZ012-019>021-037-180000-  
NORTHEAST MINNESOTA  
 
CITY SKY/WX TMP DP RH WIND PRES REMARKS
 
DULUTH FAIR 13 -6 42 NW7 30.02R WCI 3  
ELY FAIR 7 -8 51 CALM 30.02R  
HIBBING FAIR 8 -7 50 W6 30.04S WCI -2  
EVELETH FAIR 10 -8 44 NW3 30.05R  
DULUTH HARBOR FAIR 16 1 53 MISG 30.10R  
TWO HARBORS FAIR 10 -8 44 W3 30.03R  
SILVER BAY FAIR 12 -8 40 NW5 30.02R WCI 4  
GRAND MARAIS N/A 13 -4 46 VRB3 30.04S  
G MARAIS ARPRT FAIR 1 -8 66 W5 29.94S WCI -8  

 
MNZ029>031-032-039>041-046>048-054>057-064-180000-  
WEST CENTRAL MINNESOTA  
 
CITY SKY/WX TMP DP RH WIND PRES REMARKS
 
FERGUS FALLS CLOUDY 10 3 72 NW9 30.17R WCI -2  
WHEATON CLOUDY 10 5 79 NW8 30.20R WCI -1  
MORRIS CLOUDY 10 1 67 NW9 30.17R WCI -2  
ALEXANDRIA CLOUDY 14 2 58 NW8 30.11S WCI 3  
ELBOW LAKE CLOUDY 10 5 79 W9 30.15S WCI -3  
WADENA CLOUDY 10 1 67 W6 30.11F WCI 1  
GLENWOOD CLOUDY 12 5 73 NW8 30.13R WCI 1  
APPLETON CLOUDY 14 7 73 NW6 30.17S WCI 5  
BENSON CLOUDY 12 7 79 N7 30.17R WCI 2  
ORTONVILLE CLOUDY 12 7 79 N7 30.16F WCI 2  
MADISON CLOUDY 18 9 68 N7 30.17S WCI 8  
WILLMAR CLOUDY 12 7 79 NW7 30.16S WCI 2  

 
MNZ033>034-036-042>043-049>051-058-059-180000-  
CENTRAL MINNESOTA  
 
CITY SKY/WX TMP DP RH WIND PRES REMARKS
 
ST CLOUD CLOUDY 15 3 59 NW9 30.11F WCI 3  
SAUK CENTRE CLOUDY 13 2 62 NW8 30.12S WCI 1  
PAYNESVILLE CLOUDY 15 8 73 NW5 30.13S WCI 7  
AITKIN CLOUDY 10 -2 56 W5 30.08R WCI 2  
PINE RIVER CLOUDY 10 0 61 CALM 30.13R  
BRAINERD CLOUDY 13 -3 49 W7 30.11R WCI 3  
STAPLES CLOUDY 10 0 61 W7 30.11S WCI 0  
LONG PRAIRIE CLOUDY 12 1 62 NW5 30.12S WCI 4  
LITTLE FALLS CLOUDY 14 0 52 W6 30.13S WCI 5  
LITCHFIELD CLOUDY 16 9 73 N9 30.13R WCI 4  
BUFFALO CLOUDY 18 5 57 MISG 30.13S  
MAPLE LAKE CLOUDY 17 7 63 CALM 30.14R  
HUTCHINSON MOCLDY 19 9 65 NW8 30.13S WCI 8  

 
MNZ037-044-045-052-053-180000-  
EAST CENTRAL MINNESOTA  
 
CITY SKY/WX TMP DP RH WIND PRES REMARKS
 
PRINCETON CLOUDY 16 5 62 NW7 30.11S WCI 6  
MORA FAIR 12 1 62 W3 30.12R  
CAMBRIDGE FAIR 18 1 49 NW6 30.11R WCI 9  
RUSH CITY FAIR 13 0 55 W6 30.11R WCI 4  
MOOSE LAKE CLOUDY 14 -4 44 NW5 30.06S WCI 6  
HINCKLEY FAIR 14 0 52 N5 30.09R WCI 6  
CLOQUET FAIR 12 -8 40 NW6 30.05S WCI 3  
MCGREGOR CLOUDY 14 0 52 NW6 30.08R WCI 5  

 
MNZ071>073-080-081-089-090-097-098-180000-  
SOUTHWEST MINNESOTA  
 
CITY SKY/WX TMP DP RH WIND PRES REMARKS
 
MONTEVIDEO CLOUDY 12 5 73 N8 30.17R WCI 1  
GRANITE FALLS CLOUDY 17 10 75 NW8 30.18R WCI 6  
CANBY CLOUDY 17 10 71 N5 30.16S WCI 10  
MARSHALL CLOUDY 16 7 67 NW7 30.16R WCI 6  
REDWOOD FALLS CLOUDY 16 6 65 N7 30.15R WCI 6  
OLIVIA CLOUDY 16 10 79 NW10 30.15R WCI 3  
PIPESTONE CLOUDY 19 12 73 N3 30.10R  
WINDOM CLEAR 16 9 73 NW10 30.10S WCI 3  
WORTHINGTON CLEAR 18 8 65 N10 30.10S WCI 6  
JACKSON CLEAR 18 9 68 NW8 30.10S WCI 7  
TRACY CLOUDY 16 9 72 NW6 30.12F WCI 8  

 
MNZ065>067-074>077-082>085-091>093-180000-  
SOUTH CENTRAL MINNESOTA  
 
CITY SKY/WX TMP DP RH WIND PRES REMARKS
 
MANKATO FAIR 19 11 70 NW10 30.12R WCI 7  
NEW ULM CLEAR 18 9 68 NW12 30.14R WCI 5  
ST JAMES CLEAR 18 9 68 W12 30.14R WCI 5  
FAIRMONT CLEAR 17 10 74 NW9 30.11F WCI 6  
GLENCOE MOCLDY 19 9 64 NW10 30.12R WCI 8  
OWATONNA FAIR 18 10 73 W7 30.09R WCI 8  
WASECA FAIR 18 10 73 W7 30.11R WCI 8  

 
MNZ078>079-086>088-094>096-180000-  
SOUTHEAST MINNESOTA  
 
CITY SKY/WX TMP DP RH WIND PRES REMARKS
 
ROCHESTER CLOUDY 20 15 81 W13 30.05R WCI 7  
RED WING FAIR 21 9 58 NW6 30.09R WCI 14  
STANTON FAIR 21 12 66 W9 30.08R WCI 11  
DODGE CENTER FAIR 18 12 79 W9 30.06R WCI 6  
WINONA CLOUDY 27 19 74 W8 30.08S WCI 18  
AUSTIN FAIR 21 10 63 NW9 30.07R WCI 11  
PRESTON MOCLDY 21 16 81 NW14 30.05R WCI 8  

 
ABBREVIATIONS USED IN REMARKS  
TC - TEMPERATURES IN CELSIUS  
WCI - WIND CHILL INDEX  
HX - HEAT INDEX  
VSB - VISIBILITY  

 
 
 
CLICK HERE TO GO TO PREVIOUS BULLETINS.

The Nexlab MN Page Main Text Page